Terminal Aerodrome Forecast
Issued by NWS

Home | Current Version | Previous Version | Text Only | Print | Product List | Glossary On
Versions: 1 2 3 4 5 6 7 8 9 10 11 12 13 14 15 16 17 18 19 20 21 22 23 24 25 26 27 28 29 30 31
000
FTUS41 KCTP 141352 AAB
TAFUNV
TAF AMD
KUNV 141352Z 1414/1512 08003KT P6SM VCSH SCT025 BKN050
     FM141500 32012G23KT P6SM BKN050
     FM142200 28004KT P6SM OVC250=

USA.gov is the U.S. government's official web portal to all federal, state and local government web resources and services.